Location: Caltech
(34.1382°N, 118.1253°W)
Time: 10:19:56
(UTC-07:00)

Iridium 91 - Visible Passes

Search period start: 27 March 2015 00:00
Search period end: 06 April 2015 00:00
Orbit: 776 x 779 km, 86.4° (Epoch: 26 March)

Date Brightness Start Highest point End Pass type
(mag) Time Alt. Az. Time Alt. Az. Time Alt. Az.
28 Mar 6.4 06:01:57 10° SSE 06:07:00 55° E 06:12:07 10° NNE visible
29 Mar 7.7 05:29:16 10° SE 05:33:37 28° E 05:38:04 10° NNE visible
30 Mar 8.6 04:57:38 10° ESE 05:00:17 15° E 05:03:14 10° NE visible
31 Mar 5.7 06:01:53 10° S 06:07:05 83° E 06:12:19 10° N visible
01 Apr 6.9 05:28:47 10° SSE 05:33:38 42° E 05:38:32 10° NNE visible
02 Apr 8.0 04:56:25 10° SE 05:00:15 22° E 05:04:16 10° NNE visible
03 Apr 8.7 04:25:47 10° E 04:26:57 11° E 04:28:31 10° ENE visible
03 Apr 5.5 06:02:01 10° S 06:07:10 66° W 06:12:22 10° N visible
04 Apr 6.0 05:28:33 10° S 05:33:40 64° E 05:38:50 10° N visible
05 Apr 7.3 04:55:43 10° SSE 05:00:15 32° E 05:04:53 10° NNE visible
